{"data":{"norad_id":50185,"epoch":"2026-05-25T01:14:33.289152Z","epoch_age_seconds":64339,"freshness":"FRESH","line1":"1 50185U 21125AF  26145.05177418  .00000296  00000+0  36692-4 0  9997","line2":"2 50185  53.2158 266.3539 0001259  87.5875 272.5262 15.08837529248138","mean_motion":15.08837529,"eccentricity":0.0001259,"inclination_deg":53.2158,"raan_deg":266.3539,"arg_perigee_deg":87.5875,"mean_anomaly_deg":272.5262,"bstar":3.6692e-5,"rev_number":24813,"period_min":95.43771097438,"perigee_km":538.879979741,"apogee_km":540.62190392475,"semimajor_km":6917.8879418329,"source":"CELESTRAK","updated_at":"2026-05-25T13:38:16.869203Z"}}